Okean 2 - Orbit

View from above orbital plane
View from above orbital plane
View from above satellite
View from above satellite

Ground track
Ground track

The orbit data is extracted from the following two-line orbital elements,

1 20510U 90018A   13139.66605387  .00002337  00000-0  21528-3 0  3893
2 20510 082.5163 157.6159 0012159 326.4091 167.5994 14.94259905258589
Epoch (UTC): 19 May 2013 15:59:07
Eccentricity: 0.0012159
inclination: 82.5163°
perigee height: 576 km
apogee height: 593 km
right ascension of ascending node: 157.6159°
argument of perigee: 326.4091°
revolutions per day: 14.94259905
mean anomaly at epoch: 167.5994°
orbit number at epoch: 25858

The dashed part of the orbit path shows where the satellite is in the earth's shadow,  

Developed and maintained by Chris Peat, Heavens-Above GmbH. Please read the updated FAQ before sending e-mail. Imprint. DLR